Regional Weather Roundup
Issued by NWS

Home | Current Version | Previous Version | Text Only | Print | Product List | Glossary On
Versions: 1 2 3 4 5 6 7 8 9 10 11 12 13 14 15 16 17 18 19 20 21 22 23 24 25 26 27 28 29 30 31 32 33 34 35 36 37 38 39 40 41 42 43 44 45 46 47 48 49 50
991
ASUS43 KIND 220559
RWRIN

WEATHER ROUNDUP FOR INDIANA
NATIONAL WEATHER SERVICE INDIANAPOLIS IN
100 AM EST THU FEB 22 2018

NOTE: "FAIR" INDICATES FEW OR NO CLOUDS BELOW 12,000 FEET WITH NO
SIGNIFICANT WEATHER AND/OR OBSTRUCTIONS TO VISIBILITY.

* - STATION DOES NOT REPORT WEATHER SUCH AS PRECIPITATION OR FOG.

+ - STATION NOT QUALITY CONTROLLED BY THE NATIONAL WEATHER SERVICE.
    USE DATA WITH CAUTION...ESPECIALLY DEWPOINT AND RELATIVE
    HUMIDITY OBSERVATIONS.

INZ001>003-010>013-019-020-220700-
NORTHWEST INDIANA

CITY           SKY/WX    TMP DP  RH WIND       PRES   REMARKS
MONTICELLO +   MOCLDY    32  31  95 NE12      30.52F WCI  23
6HR MIN TEMP:  32; 6HR MAX TEMP:  33;

RENSSELAER +   FAIR      32  28  86 NE13      30.53F WCI  22

$$

LMZ046-743>745-220700-
SOUTHERN LAKE MICHIGAN

STATION/POSITION TIME  TEMP    WIND        PRES    WAVE
                       AIR SEA DIR/SP/G            HT
                 (UTC) (F)     (DEG/KT/KT) (MB)    (FT)
MICHIGAN CITY    0530   30      30/ 21/ 23   N/A

$$

INZ004-005-014>016-021>024-220700-
NORTH CENTRAL INDIANA

CITY           SKY/WX    TMP DP  RH WIND       PRES   REMARKS
GOSHEN         FAIR      33  29  85 NE9       30.56F WCI  25
6HR MIN TEMP:  33; 6HR MAX TEMP:  34;

PERU/GRISSOM   CLOUDY    35  35 100 NE13      30.51F WCI  27
6HR MIN TEMP:  35; 6HR MAX TEMP:  35;

SOUTH BEND     FAIR      29  26  89 NE8       30.56F WCI  21
6HR MIN TEMP:  28; 6HR MAX TEMP:  30;

WARSAW +       FAIR      32  32 100 E8G16     30.55F WCI  25

$$

INZ006>009-017-018-025>027-220700-
NORTHEAST INDIANA

CITY           SKY/WX    TMP DP  RH WIND       PRES   REMARKS
FORT WAYNE     CLOUDY    37  35  92 E15       30.55S WCI  28
6HR MIN TEMP:  37; 6HR MAX TEMP:  38;

KENDALLVILLE + CLOUDY    34  32  92 NE8       30.57S WCI  27

$$

INZ028-029-035-036-043>045-051>053-220700-
WEST CENTRAL INDIANA

CITY           SKY/WX    TMP DP  RH WIND       PRES   REMARKS
GREENCASTLE +  LGT RAIN  36  36 100 NE9       30.47F WCI  29
LAFAYETTE      CLOUDY    34  31  88 NE12      30.50F WCI  25
6HR MIN TEMP:  33; 6HR MAX TEMP:  34;

TERRE HAUTE    LGT RAIN  38  36  92 NE12      30.45F FOG     WCI  30
6HR MIN TEMP:  36; 6HR MAX TEMP:  38; 6HR PCP:  0.08;


$$

INZ030>032-037>040-046>048-054>057-064-065-220700-
CENTRAL INDIANA

CITY           SKY/WX    TMP DP  RH WIND       PRES   REMARKS
GREENWOOD *+   CLOUDY    37 -49   2 E15       30.48S WCI  27
INDIANAPOLIS   LGT RAIN  39  37  92 NE14      30.47F FOG     WCI  31
6HR MIN TEMP:  37; 6HR MAX TEMP:  39; 6HR PCP:  0.13;

-EAGLE CREEK   LGT RAIN  39  36  89 NE8       30.48S WCI  33
6HR MIN TEMP:  37; 6HR MAX TEMP:  39; 6HR PCP:  0.12;

KOKOMO +       CLOUDY    36  33  89 NE12      30.53S WCI  28
6HR MIN TEMP:  35; 6HR MAX TEMP:  36;

MT COMFORT *+  CLOUDY    37  37 100 E15       30.49R WCI  28
SHELBYVILLE    LGT RAIN  40  36  86 NE13G23   30.47S WCI  32
6HR MIN TEMP:  39; 6HR MAX TEMP:  41; 6HR PCP:  0.27;


$$

INZ033-034-041-042-049-050-058-059-220700-
EAST CENTRAL INDIANA

CITY           SKY/WX    TMP DP  RH WIND       PRES   REMARKS
MUNCIE         LGT RAIN  39  35  86 E14       30.51R WCI  31
6HR MIN TEMP:  39; 6HR MAX TEMP:  40; 6HR PCP:  0.06;

RICHMOND +     LGT RAIN  34  34 100 NE15G23   30.50R WCI  24

$$

INZ060-061-067>069-081>083-085>088-220700-
SOUTHWEST INDIANA

CITY           SKY/WX    TMP DP  RH WIND       PRES   REMARKS
EVANSVILLE     RAIN      40  40 100 NE9       30.39F FOG     WCI  34
6HR MIN TEMP:  40; 6HR MAX TEMP:  42; 6HR PCP:  0.31;

HUNTINGBURG +  LGT RAIN  41  40  96 NE16      30.37F
6HR MIN TEMP:  40; 6HR MAX TEMP:  43; 6HR PCP:  0.38;


$$

INZ062-063-066-070>080-084-089>092-220700-
SOUTH CENTRAL AND SOUTHEAST INDIANA

CITY           SKY/WX    TMP DP  RH WIND       PRES   REMARKS
BLOOMINGTON    RAIN      39  37  92 NE10      30.43F FOG     WCI  32
6HR MIN TEMP:  38; 6HR MAX TEMP:  39; 6HR PCP:  0.33;

FRENCH LICK *+ CLOUDY    39 N/A N/A NE17G25   30.38F WCI  30
SEYMOUR +      LGT RAIN  43  41  93 N12       30.44F

$$





USA.gov is the U.S. government's official web portal to all federal, state and local government web resources and services.